Weather History for KMPV - April, 2011

Change the Weather History Date:

Sunday, April 10, 2011

  Actual Average Record
Temperature  
Mean Temperature 46 °F 40 °F  
Max Temperature 59 °F 51 °F 64 °F (1987)
Min Temperature 32 °F 30 °F 17 °F (1997)
Degree Days  
Heating Degree Days 20 25  
Month to date heating degree days 270  
Since 1 July heating degree days 7295  
Cooling Degree Days 0 0  
Month to date cooling degree days 0  
Year to date cooling degree days 0  
Moisture  
Dew Point 34 °F    
Average Humidity 66    
Maximum Humidity 93    
Minimum Humidity 37    
Precipitation  
Precipitation 0.64 in 0.09 in 1.17 in ()
Month to date precipitation 0.85  
Year to date precipitation 7.73  
Sea Level Pressure  
Sea Level Pressure 30.06 in    
Wind  
Wind Speed 4 mph (South)    
Max Wind Speed 14 mph    
Max Gust Speed 23 mph    
Visibility 9 miles    
Events Rain    
T = Trace of Precipitation, MM = Missing Value Source: NWS Daily Summary

Daily Weather History Graph

Daily Weather History Graph

Search for Another Location

Airport or City:

Trip Planner

Search our weather history database for the weather conditions in past years. The results will help you decide how hot, cold, wet, or windy it might be!

Date:

Astronomy

Apr. 10, 2011 Rise Set
Actual Time 6:15 AM EDT 7:28 PM EDT
Civil Twilight 5:46 AM EDT 7:57 PM EDT
Nautical Twilight 5:10 AM EDT 8:33 PM EDT
Astronomical Twilight 4:32 AM EDT 9:11 PM EDT
Moon 10:46 AM EDT (4/10) 1:32 AM EDT (4/10)
Length of Visible Light 14h 11m
Length of Day
13h 12m
Waxing Crescent, 41% of the Moon is Illuminated
Apr 10
Waxing Crescent
Apr 11
First Quarter
Apr 17
Full
Apr 24
Last Quarter
May 3
New

Hourly Weather History & Observations

Time (EDT) Temp. Windchill Dew Point Humidity Pressure Visibility Wind Dir Wind Speed Gust Speed Precip Events Conditions
12:51 AM 37.9 °F - 28.0 °F 68% 30.14 in 10.0 mi Calm Calm - N/A   Scattered Clouds
1:51 AM 37.0 °F - 28.0 °F 70% 30.13 in 10.0 mi Calm Calm - N/A   Mostly Cloudy
2:51 AM 36.0 °F - 28.9 °F 76% 30.13 in 10.0 mi Calm Calm - N/A   Mostly Cloudy
3:51 AM 35.1 °F - 27.0 °F 72% 30.12 in 10.0 mi Calm Calm - N/A   Mostly Cloudy
4:51 AM 33.1 °F - 27.0 °F 78% 30.12 in 10.0 mi Calm Calm - N/A   Clear
5:51 AM 32.0 °F - 27.0 °F 82% 30.13 in 10.0 mi Calm Calm - N/A   Scattered Clouds
6:51 AM 33.1 °F - 28.9 °F 85% 30.17 in 10.0 mi Calm Calm - N/A   Overcast
7:51 AM 35.1 °F - 28.0 °F 76% 30.18 in 10.0 mi Calm Calm - N/A   Overcast
8:51 AM 42.1 °F - 30.0 °F 62% 30.16 in 10.0 mi Calm Calm - N/A   Clear
9:51 AM 50.0 °F - 28.0 °F 43% 30.13 in 10.0 mi South 9.2 mph - N/A   Clear
10:51 AM 55.4 °F - 32.0 °F 41% 30.10 in 10.0 mi SSE 10.4 mph - N/A   Clear
11:51 AM 54.0 °F - 32.0 °F 43% 30.12 in 10.0 mi South 11.5 mph 17.3 mph N/A   Clear
12:51 PM 57.9 °F - 33.1 °F 39% 30.09 in 10.0 mi SSE 13.8 mph 18.4 mph N/A   Clear
1:51 PM 57.0 °F - 32.0 °F 39% 30.06 in 10.0 mi South 9.2 mph - N/A   Clear
2:51 PM 57.9 °F - 32.0 °F 37% 30.02 in 10.0 mi South 12.7 mph 23.0 mph N/A   Clear
3:51 PM 59.0 °F - 34.0 °F 39% 29.98 in 10.0 mi SSE 13.8 mph - N/A   Clear
4:51 PM 57.9 °F - 36.0 °F 44% 29.95 in 10.0 mi SSE 11.5 mph - N/A   Scattered Clouds
5:51 PM 54.0 °F - 37.9 °F 55% 29.97 in 10.0 mi South 8.1 mph - 0.00 in Rain Light Rain
6:51 PM 48.9 °F - 44.1 °F 83% 30.00 in 6.0 mi SSW 5.8 mph - 0.09 in Rain Light Rain
7:51 PM 46.9 °F - 44.1 °F 90% 29.99 in 5.0 mi South 5.8 mph - 0.10 in Rain Light Rain
8:51 PM 46.9 °F - 45.0 °F 93% 29.96 in 7.0 mi SSE 6.9 mph - 0.06 in Rain Light Rain
9:51 PM 46.0 °F 42.5 °F 44.1 °F 93% 29.98 in 3.0 mi SE 6.9 mph - 0.20 in Rain Heavy Rain
10:51 PM 45.0 °F 39.7 °F 43.0 °F 93% 29.95 in 5.0 mi South 10.4 mph - 0.12 in Rain Light Rain
11:51 PM 45.0 °F 39.7 °F 42.1 °F 90% 29.93 in 5.0 mi South 10.4 mph - 0.07 in Rain Rain